Location: Bismarck
(46.7731°N, 100.8200°W)
Time: 10:15:28
(UTC-05:00)

ISS - All Passes

Search period start: 24 April 2017 00:00
Search period end: 04 May 2017 00:00
Orbit: 400 x 409 km, 51.6° (Epoch: 25 April)

Date Brightness Start Highest point End Pass type
(mag) Time Alt. Az. Time Alt. Az. Time Alt. Az.
24 Apr - 11:03:28 10° SW 11:06:39 52° SSE 11:09:49 10° ENE daylight
24 Apr - 12:40:04 10° W 12:43:11 42° NNW 12:46:19 10° ENE daylight
24 Apr - 14:17:06 10° WNW 14:20:08 34° N 14:23:09 10° ENE daylight
24 Apr - 15:53:36 10° WNW 15:56:53 87° NNE 16:00:08 10° ESE daylight
24 Apr - 17:30:48 10° W 17:32:59 17° SW 17:35:10 10° S daylight
25 Apr - 10:11:35 10° SSW 10:14:29 30° SE 10:17:24 10° E daylight
25 Apr - 11:47:38 10° W 11:50:51 56° NNW 11:54:03 10° ENE daylight
25 Apr - 13:24:43 10° WNW 13:27:43 33° N 13:30:43 10° ENE daylight
25 Apr - 15:01:21 10° WNW 15:04:34 58° NNE 15:07:48 10° E daylight
25 Apr - 16:38:03 10° W 16:40:55 28° SW 16:43:45 10° SSE daylight
26 Apr - 09:20:05 10° S 09:22:23 18° SE 09:24:42 10° E daylight
26 Apr - 10:55:16 10° WSW 10:58:31 82° NNW 11:01:48 10° ENE daylight
26 Apr - 12:32:16 10° WNW 12:35:17 34° N 12:38:19 10° ENE daylight
26 Apr - 14:09:05 10° WNW 14:12:13 43° NNE 14:15:21 10° E daylight
26 Apr - 15:45:35 10° WNW 15:48:45 48° SSW 15:51:54 10° SE daylight
27 Apr - 08:29:47 10° SE 08:30:21 10° SE 08:30:56 10° ESE daylight
27 Apr - 10:03:03 10° SW 10:06:15 62° SSE 10:09:29 10° ENE daylight
27 Apr - 11:39:47 10° W 11:42:53 39° NNW 11:45:58 10° ENE daylight
27 Apr - 13:16:45 10° WNW 13:19:49 36° N 13:22:52 10° ENE daylight
27 Apr - 14:53:15 10° WNW 14:56:31 81° SSW 14:59:46 10° ESE daylight
27 Apr - 16:30:45 10° WSW 16:32:32 14° SW 16:34:18 10° SSW daylight
28 Apr - 09:11:01 10° SSW 09:14:02 36° SE 09:17:04 10° ENE daylight
28 Apr - 10:47:17 10° W 10:50:28 50° NNW 10:53:39 10° ENE daylight
28 Apr - 12:24:22 10° WNW 12:27:23 33° N 12:30:22 10° ENE daylight
28 Apr - 14:00:57 10° WNW 14:04:12 66° NNE 14:07:26 10° ESE daylight
28 Apr - 15:37:46 10° W 15:40:27 23° SW 15:43:06 10° SSE daylight
29 Apr - 08:19:18 10° SSW 08:21:54 22° SE 08:24:28 10° E daylight
29 Apr - 09:54:51 10° WSW 09:58:06 71° NNW 10:01:21 10° ENE daylight
29 Apr - 11:31:54 10° WNW 11:34:54 33° N 11:37:55 10° ENE daylight
29 Apr - 13:08:39 10° WNW 13:11:49 47° NNE 13:14:59 10° E daylight
29 Apr - 14:45:12 10° WNW 14:48:17 40° SW 14:51:20 10° SE daylight
30 Apr - 07:28:16 10° SSE 07:29:47 13° SE 07:31:19 10° ESE daylight
30 Apr - 09:02:31 10° SW 09:05:46 75° SSE 09:09:01 10° ENE daylight
30 Apr - 10:39:22 10° W 10:42:27 37° N 10:45:31 10° ENE daylight
30 Apr - 12:16:18 10° WNW 12:19:23 38° N 12:22:27 10° E daylight
30 Apr - 13:52:47 10° WNW 13:56:01 68° SSW 13:59:15 10° SE daylight
30 Apr - 15:30:50 10° WSW 15:31:58 11° SW 15:33:05 10° SSW daylight
01 May - 08:10:23 10° SW 08:13:30 44° SE 08:16:37 10° ENE daylight
01 May - 09:46:50 10° W 09:49:59 45° NNW 09:53:09 10° ENE daylight
01 May - 11:23:53 10° WNW 11:26:55 34° N 11:29:55 10° ENE daylight
01 May - 13:00:26 10° WNW 13:03:41 76° NNE 13:06:56 10° ESE daylight
01 May - 14:37:25 10° W 14:39:52 20° SW 14:42:18 10° S daylight
02 May - 07:18:30 10° SSW 07:21:16 26° SE 07:24:03 10° E daylight
02 May - 08:54:20 10° WSW 08:57:34 62° NNW 09:00:49 10° ENE daylight
02 May - 10:31:25 10° WNW 10:34:25 33° N 10:37:24 10° ENE daylight
02 May - 12:08:05 10° WNW 12:11:17 52° NNE 12:14:29 10° E daylight
02 May - 13:44:42 10° WNW 13:47:41 33° SW 13:50:38 10° SSE daylight
03 May - 06:27:06 10° S 06:29:07 15° SE 06:31:08 10° E daylight
03 May - 08:01:54 10° WSW 08:05:11 87° SSE 08:08:27 10° ENE daylight
03 May - 09:38:51 10° WNW 09:41:54 35° N 09:44:56 10° ENE daylight
03 May - 11:15:43 10° WNW 11:18:50 40° NNE 11:21:56 10° E daylight
03 May - 12:52:12 10° WNW 12:55:25 57° SSW 12:58:35 10° SE daylight
